TimeEDT,TemperatureF,Dew PointF,Humidity,Sea Level PressureIn,VisibilityMPH,Wind Direction,Wind SpeedMPH,Gust SpeedMPH,PrecipitationIn,Events,Conditions,WindDirDegrees,DateUTC
12:56 AM,57.9,55.9,93,30.27,10.0,Calm,Calm,-,N/A,,Clear,0,2013-08-18 04:56:00
1:56 AM,59.0,57.0,93,30.26,8.0,Calm,Calm,-,N/A,,Clear,0,2013-08-18 05:56:00
2:56 AM,59.0,55.9,90,30.27,10.0,Calm,Calm,-,N/A,,Clear,0,2013-08-18 06:56:00
3:56 AM,57.9,55.9,93,30.26,10.0,Calm,Calm,-,N/A,,Clear,0,2013-08-18 07:56:00
4:56 AM,59.0,55.9,90,30.26,10.0,Calm,Calm,-,N/A,,Clear,0,2013-08-18 08:56:00
5:56 AM,57.9,55.9,93,30.27,10.0,Calm,Calm,-,N/A,,Clear,0,2013-08-18 09:56:00
6:56 AM,60.1,57.9,93,30.27,10.0,Calm,Calm,-,N/A,,Clear,0,2013-08-18 10:56:00
7:56 AM,66.9,63.0,87,30.27,10.0,Calm,Calm,-,N/A,,Clear,0,2013-08-18 11:56:00
8:56 AM,71.1,62.1,73,30.27,10.0,Calm,Calm,-,N/A,,Clear,0,2013-08-18 12:56:00
9:56 AM,72.0,64.0,76,30.27,10.0,ESE,4.6,-,N/A,,Clear,110,2013-08-18 13:56:00
10:56 AM,72.0,63.0,73,30.26,10.0,ESE,4.6,-,N/A,,Clear,120,2013-08-18 14:56:00
11:56 AM,73.0,60.1,64,30.25,10.0,Variable,4.6,-,N/A,,Clear,0,2013-08-18 15:56:00
12:56 PM,75.0,53.1,46,30.25,10.0,SSE,3.5,-,N/A,,Clear,160,2013-08-18 16:56:00
1:56 PM,73.9,59.0,59,30.22,10.0,Variable,4.6,-,N/A,,Clear,0,2013-08-18 17:56:00
2:56 PM,73.0,57.9,59,30.21,10.0,SE,4.6,-,N/A,,Clear,140,2013-08-18 18:56:00
3:56 PM,71.1,57.9,63,30.19,10.0,ESE,3.5,-,N/A,,Clear,120,2013-08-18 19:56:00
4:56 PM,70.0,57.0,63,30.16,10.0,Calm,Calm,-,N/A,,Scattered Clouds,0,2013-08-18 20:56:00
5:56 PM,70.0,57.9,65,30.16,10.0,SSE,5.8,-,N/A,,Partly Cloudy,160,2013-08-18 21:56:00
6:56 PM,68.0,59.0,73,30.14,10.0,Calm,Calm,-,0.00,Rain,Light Rain,0,2013-08-18 22:56:00
7:56 PM,64.9,62.1,90,30.13,10.0,Calm,Calm,-,0.01,,Mostly Cloudy,0,2013-08-18 23:56:00
8:56 PM,66.0,62.1,87,30.13,10.0,Calm,Calm,-,0.01,Rain,Light Rain,0,2013-08-19 00:56:00
9:56 PM,64.0,62.1,93,30.14,8.0,Calm,Calm,-,0.09,Rain,Light Rain,0,2013-08-19 01:56:00
10:56 PM,64.0,61.0,90,30.09,10.0,Calm,Calm,-,0.00,Rain,Light Rain,0,2013-08-19 02:56:00
11:56 PM,62.1,61.0,96,30.09,8.0,Calm,Calm,-,0.00,,Scattered Clouds,0,2013-08-19 03:56:00